Location: Unspecified
(0.0000°N, 0.0000°E)
Time: 05:39:56
(UTC+02:00)

Cosmos 2263 Rocket - Visible Passes

Search period start: 01 June 2016 00:00
Search period end: 11 June 2016 00:00
Orbit: 822 x 850 km, 71.0° (Epoch: 31 May)

Date Brightness Start Highest point End Pass type
(mag) Time Alt. Az. Time Alt. Az. Time Alt. Az.
01 Jun 4.9 20:30:23 10° WNW 20:33:09 14° WSW 20:35:56 10° SW visible
02 Jun 2.3 07:27:25 10° SSW 07:32:56 58° WNW 07:38:28 10° N visible
03 Jun 2.2 07:10:41 10° SSW 07:16:15 66° WNW 07:21:52 10° N visible
04 Jun 2.1 06:53:58 10° SSW 06:59:35 74° WNW 07:05:13 10° N visible
05 Jun 2.1 06:38:37 18° SSW 06:42:54 82° WNW 06:48:34 10° NNE visible
06 Jun 2.1 06:23:19 30° SSW 06:26:13 89° E 06:31:53 10° NNE visible
07 Jun 2.2 06:07:56 48° S 06:09:32 80° ESE 06:15:12 10° NNE visible
08 Jun 2.3 05:52:30 69° SE 05:52:52 71° ESE 05:58:29 10° NNE visible
09 Jun 2.7 05:37:00 56° ENE 05:37:00 56° ENE 05:41:46 10° NNE visible
10 Jun 3.4 05:21:27 38° NE 05:21:27 38° NE 05:25:02 10° NNE visible
